Content
SEND FEEDBACK

Daily
Averages
Monthly
Summary
United Kingdom

LONDON, ENGLAND


Home > Europe > United Kingdom > England
Elevation: 203 feet     Latitude: 51 09N     Longitude: 000 11W

WEATHER
 
SELECT A DAY
Number of Records: 298,624;   Date Range: 7/1/96 - 11/22/14
 
SHARE

PRINT THIS DATA

[ ← Previous Day ]
WEATHER ALMANAC - JANUARY 26, 2013
[ Next Day → ]
[ °C ]   °F
Weather ElementAverageHighLow
Temperature41.8 °F46.4 °F (12:50 pm)35.6 °F (12:50 am)
Dewpoint37.4 °F42.8 °F (8:20 pm)32 °F (1:20 am)
Humidity84.6 %100 % (6:20 am)71 % (12:50 pm)
Barometer29.73 in29.86 in (12:20 pm)29.59 in (12:50 am)
Wind Speed9.2 mph17.3 mph (9:50 pm)
Wind Gust29.9 mph (11:20 pm)
Weather ElementAverage
Visibility4.9 mi
Wind DirectionSSW (209.3 °)

Weather ElementTotal
Precipitation---
Heating Degree Days24 (Base 65)
Averaged from 46 records on January 26, 2013
WEATHER CONDITIONS BREAKOUT
WIND DIRECTION BREAKOUT
WEATHER BY HOUR - JANUARY 26, 2013
[ °C ]   °F
Local TimeTemperatureDewpointHumidityBarometerVisibilityWind DirectionWind SpeedGust SpeedPrecipitationEventsConditions
12:50 AM35.6 °F33.8 °F93 %29.59 in2.8 miSouth (170°)11.5 mphRainLight Rain
1:20 AM35.6 °F32.0 °F87 %29.59 in2.5 miSSE (160°)10.4 mphRainLight Rain
1:50 AM35.6 °F32.0 °F87 %29.59 in2.5 miSSE (160°)10.4 mphRainLight Rain
2:20 AM35.6 °F32.0 °F87 %29.59 in2.5 miSouth (170°)9.2 mphRainLight Rain
2:50 AM35.6 °F32.0 °F87 %29.59 in3.7 miSSE (150°)6.9 mphRainLight Rain
3:20 AM35.6 °F33.8 °F93 %29.59 in3.7 miSSE (160°)6.9 mphLight Drizzle
3:50 AM37.4 °F35.6 °F93 %29.59 in2.2 miSSE (150°)5.8 mphDrizzle
4:20 AM37.4 °F35.6 °F93 %29.62 in1.9 miVariable3.5 mphHeavy Drizzle
4:50 AM39.2 °F37.4 °F93 %29.62 in3.1 miSSW (200°)3.5 mphRainRain
5:20 AM39.2 °F37.4 °F93 %29.65 in3.1 miSW (230°)2.3 mphDrizzle
5:50 AM39.2 °F37.4 °F93 %29.65 in3.7 miVariable3.5 mphRainLight Rain
6:20 AM37.4 °F37.4 °F100 %29.65 in3.7 miWSW (240°)3.5 mphRainLight Rain
6:50 AM37.4 °F37.4 °F100 %29.68 in4.3 miWSW (250°)5.8 mphMostly Cloudy
7:20 AM37.4 °F35.6 °F93 %29.68 in6.2 miWest (280°)6.9 mphMostly Cloudy
7:50 AM39.2 °F35.6 °F87 %29.71 in6.2 miWNW (300°)11.5 mphPartly Cloudy
8:20 AM37.4 °F35.6 °F93 %29.74 in6.2 miWNW (300°)10.4 mphPartly Cloudy
8:50 AM39.2 °F35.6 °F87 %29.77 in6.2 miWNW (300°)9.2 mphPartly Cloudy
9:20 AM39.2 °F35.6 °F87 %29.80 in6.2 miWNW (290°)10.4 mphPartly Cloudy
9:50 AM41.0 °F37.4 °F87 %29.80 in6.2 miWest (260°)6.9 mphPartly Cloudy
10:20 AM41.0 °F37.4 °F87 %29.83 in6.2 miWest (270°)10.4 mphScattered Clouds
10:50 AM42.8 °F37.4 °F81 %29.83 inWest (270°)11.5 mphClear
11:20 AM42.8 °F37.4 °F81 %29.83 inWest (260°)11.5 mphClear
11:50 AM44.6 °F37.4 °F76 %29.83 inWest (260°)12.7 mphClear
12:20 PM44.6 °F37.4 °F76 %29.86 inWest (260°)12.7 mphClear
12:50 PM46.4 °F37.4 °F71 %29.83 inWest (260°)8.1 mphClear
1:20 PM46.4 °F37.4 °F71 %29.83 inWSW (250°)8.1 mphClear
1:50 PM46.4 °F37.4 °F71 %29.86 inWSW (240°)8.1 mphClear
2:20 PM44.6 °F35.6 °F71 %29.83 inSW (220°)6.9 mphClear
2:50 PM44.6 °F37.4 °F76 %29.86 inSW (220°)8.1 mphClear
3:20 PM44.6 °F37.4 °F76 %29.86 inSW (220°)8.1 mphClear
3:50 PM44.6 °F37.4 °F76 %29.86 inSSW (210°)8.1 mphClear
4:20 PM42.8 °F37.4 °F81 %29.86 in6.2 miSouth (190°)6.9 mphPartly Cloudy
4:50 PM42.8 °F37.4 °F81 %29.83 in6.2 miSouth (190°)6.9 mphScattered Clouds
5:20 PM42.8 °F37.4 °F81 %29.83 in6.2 miSouth (170°)4.6 mphScattered Clouds
5:50 PM42.8 °F39.2 °F87 %29.80 in6.2 miSouth (180°)6.9 mphPartly Cloudy
6:20 PM44.6 °F39.2 °F81 %29.80 in6.2 miSouth (190°)8.1 mphPartly Cloudy
6:50 PM44.6 °F39.2 °F81 %29.80 in6.2 miSouth (190°)9.2 mphPartly Cloudy
7:20 PM46.4 °F41.0 °F81 %29.77 in6.2 miSSW (210°)10.4 mphScattered Clouds
7:50 PM46.4 °F41.0 °F81 %29.77 in5.0 miSSW (210°)11.5 mphRainLight Rain
8:20 PM46.4 °F42.8 °F87 %29.74 in5.6 miSSW (200°)11.5 mphRainLight Rain
8:50 PM46.4 °F42.8 °F87 %29.74 in5.6 miSSW (200°)12.7 mphRainLight Rain
9:50 PM44.6 °F41.0 °F87 %29.68 in5.6 miSSW (200°)17.3 mphRainLight Rain
10:20 PM44.6 °F41.0 °F87 %29.65 in5.6 miSSW (200°)16.1 mphRainLight Rain
10:50 PM46.4 °F41.0 °F81 %29.65 in6.2 miSSW (200°)17.3 mphRainLight Rain
11:20 PM46.4 °F41.0 °F81 %29.62 in6.2 miSSW (200°)16.1 mph29.9 mphMostly Cloudy
11:50 PM46.4 °F41.0 °F81 %29.59 in6.2 miSouth (190°)16.1 mphMostly Cloudy
Hourly data recorded from EGKK, located miles away from London, England







STORIES FROM OUR PARTNERS